This is the latest recevied weather packets stored in our database for station/object JQ3CCU-10. If no packets are shown the sender has not sent any weather packets the latest 10 day(s).
| Time | Temp. | Humidity | Pressure | Rain* | Wind** | Luminosity | Snow |
|---|---|---|---|---|---|---|---|
| 1777643655 | 18.89° C | 71% | - | - | 0 m/s | - | - |
| 1777641855 | 18.89° C | 71% | - | - | 0 m/s | - | - |
| 1777640055 | 18.89° C | 71% | - | - | 0 m/s | - | - |
| 1777638255 | 19.44° C | 70% | - | - | 0 m/s | - | - |
| 1777636455 | 19.44° C | 70% | - | - | 0 m/s | - | - |
| 1777634655 | 20° C | 74% | - | - | 0 m/s | - | - |
| 1777632855 | 20° C | 74% | - | - | 0 m/s | - | - |
| 1777631055 | 20.56° C | 67% | - | - | 0 m/s | - | - |
| 1777629255 | 20.56° C | 67% | - | - | 0 m/s | - | - |
| 1777627455 | 22.78° C | 61% | - | - | 0 m/s | - | - |
| 1777625655 | 22.78° C | 61% | - | - | 0 m/s | - | - |
| 1777623855 | 23.33° C | 65% | - | - | 0 m/s | - | - |
| 1777622055 | 23.33° C | 65% | - | - | 0 m/s | - | - |
| 1777620255 | 23.33° C | 61% | - | - | 0 m/s | - | - |
| 1777618455 | 23.33° C | 61% | - | - | 0 m/s | - | - |
| 1777616655 | 23.89° C | 60% | - | - | 0 m/s | - | - |
| 1777614855 | 23.89° C | 60% | - | - | 0 m/s | - | - |
| 1777613055 | 23.33° C | 64% | - | - | 0 m/s | - | - |
| 1777611255 | 23.33° C | 64% | - | - | 0 m/s | - | - |
| 1777609455 | 23.33° C | 66% | - | - | 0 m/s | - | - |
| 1777607655 | 23.33° C | 66% | - | - | 0 m/s | - | - |
| 1777605855 | 22.22° C | 61% | - | - | 0 m/s | - | - |
| 1777604055 | 22.22° C | 61% | - | - | 0 m/s | - | - |
| 1777602255 | 21.11° C | 64% | - | - | 0 m/s | - | - |
| 1777600455 | 21.11° C | 64% | - | - | 0 m/s | - | - |
* Rain since midnight (hover to see other rain measurements)
** Current wind speed in m/s (hover to see current wind gust speed)